Location: Fond Mahaut
(18.0707°N, 63.0465°W)
Time: 13:53:50
(UTC+00:00)

CENTAUR R/B - Pass Details

Date: 08 December 2019
Orbit: 773 x 1415 km, 63.4° (Epoch: 16 January)

Event Time Altitude Azimuth Distance (km) Brightness Sun altitude
Rises 22:23:51 0° 325° (NW) 4,394 6.1 -11.3°
Reaches altitude 10° 22:26:48 10° 320° (NW) 3,462 5.6 -11.9°
Maximum altitude 22:35:00 49° 249° (WSW) 1,768 4.3 -13.7°
Drops below altitude 10° 22:43:10 10° 177° (S) 3,429 5.5 -15.6°
Sets 22:46:06 0° 172° (S) 4,349 6.0 -16.2°
